Location: Unspecified
(47.4992°N, 121.7766°W)
Time: 03:03:35
(UTC-08:00)

Cosmos 2058 - Pass Details

Date: 04 February 2021
Orbit: 561 x 584 km, 82.5° (Epoch: 24 February)

Event Time Altitude Azimuth Distance (km) Brightness Sun altitude
Rises 20:00:17 0° 228° (SW) 2,781 7.0 -28.3°
Reaches altitude 10° 20:03:03 10° 248° (WSW) 1,883 6.2 -28.8°
Maximum altitude 20:05:55 18° 292° (WNW) 1,439 5.7 -29.2°
Drops below altitude 10° 20:08:48 10° 336° (NNW) 1,883 5.9 -29.7°
Sets 20:11:35 0° 356° (N) 2,781 6.6 -30.2°
